#timestamp,LO_Frequency,Hit,StdDev 
1605729615.2,286047000.4,N
1605729635.1,286047001.0,N
1605729636.0,286047001.0,N
1605729655.8,286047000.9,N
1605729675.6,286047000.3,N
1605729695.5,286047002.4,N
1605729715.3,286047000.3,N
1605729735.1,286047000.2,N
1605729755.8,286047002.7,N
1605729775.7,286047002.5,N
1605729795.5,286047001.9,N
1605729815.3,286047001.8,N
1605729835.2,286047004.2,N
1605729855.0,286047003.9,N
1605729855.9,286047003.9,N
1605729875.7,286047003.9,N
1605729895.6,286047003.8,N
1605729915.4,286047003.4,N
1605729935.2,286047003.0,N
1605729955.1,286047002.9,N
1605729956.0,286047002.9,N
1605729975.8,286047005.8,N
1605729995.6,286047005.5,N
1605730015.5,286047004.6,N
1605730035.3,286047007.2,Y
1605730055.1,286047003.2,P
1605730075.9,286047003.1,P
1605730095.7,286047003.0,P
1605730115.5,286047005.5,Y
1605730135.4,286047002.4,P
1605730155.2,286046999.7,N
1605730175.0,286047002.3,N
1605730175.9,286047002.3,N
1605730195.8,286047002.2,N
1605730215.6,286047001.9,N
1605730235.4,286047002.1,N
1605730255.3,286047001.8,N
1605730275.1,286047004.1,Y
1605730295.8,286047004.4,P
1605730315.7,286047001.3,N
1605730335.5,286047001.8,N
1605730355.3,286047001.7,N
1605730375.2,286047001.5,N
1605730395.0,286047001.7,N
1605730395.9,286047001.7,N
1605730415.7,286047004.0,Y
1605730435.6,286047001.9,P
1605730455.4,286047001.8,P
1605730505.3,286047001.3,E
1605730515.2,286047002.6,N
1605730535.0,286047000.1,P
1605730535.9,286047000.1,N
1605730555.8,286047001.6,N
1605730575.6,286047001.6,N
1605730595.4,286047001.4,N
1605730615.3,286047004.4,Y
1605730635.1,286047002.1,P
1605730636.0,286047002.1,P
1605730655.8,286047002.3,P
1605730675.7,286046999.7,N
1605730695.5,286047002.7,N
1605730715.3,286047002.0,N
1605730735.2,286047001.6,N
1605730755.9,286047002.1,N
1605730775.7,286047001.5,N
1605730795.5,286047001.4,N
1605730815.4,286047001.7,N
1605730835.2,286047004.3,Y
1605730855.1,286047001.9,P
1605730856.0,286047001.9,P
1605730875.8,286047004.0,P
1605730895.6,286047002.6,N
1605730915.5,286047001.5,N
1605730935.3,286047004.1,Y
1605730955.1,286047002.8,P
1605730975.9,286047000.2,N
1605730995.7,286047002.6,N
1605731015.5,286047002.5,N
1605731035.3,286047002.7,N
1605731055.2,286047001.5,N
1605731075.0,286047001.9,N
1605731075.9,286047001.9,N
1605731095.7,286047001.8,N
1605731115.6,286047004.1,Y
1605731135.4,286047002.6,P
1605731155.2,286047002.8,P
1605731175.1,286047002.6,P
1605731176.0,286047002.6,Y
1605731195.8,286047001.0,P
1605731215.7,286047000.2,N
1605731235.5,286047000.9,N
1605731255.3,286047000.5,N
1605731275.2,286047000.2,N
1605731295.9,286046998.2,N
1605731315.7,286046998.1,N
1605731335.6,286047001.2,N
1605731355.4,286046998.6,N
1605731375.2,286047000.7,N
1605731395.0,286047001.0,N
1605731396.0,286047001.0,N
1605731415.8,286047001.2,N
1605731435.6,286046998.2,N
1605731455.4,286046998.2,N
1605731475.3,286047000.6,N
1605731495.1,286047000.0,N
1605731515.8,286047000.2,N
1605731535.7,286047002.4,N
1605731555.5,286047000.7,N
1605731575.3,286047000.3,N
1605731595.2,286047000.9,N
1605731615.0,286047000.0,N
1605731615.9,286047000.0,N
1605731635.7,286047000.0,N
1605731655.6,286047000.3,N
1605731675.4,286047002.7,N
1605731695.2,286046999.9,N
1605731715.1,286047000.4,N
1605731716.0,286047000.4,N
1605731735.8,286047002.6,N
1605731755.6,286047000.5,N
1605731775.5,286046999.9,N
1605731795.3,286047000.8,N
1605731815.1,286047001.2,N
1605731835.9,286046998.9,N
1605731855.7,286047000.2,N
1605731875.5,286047000.5,N
1605731895.4,286046999.8,N
1605731915.2,286047000.4,N
1605731935.0,286046999.9,N
1605731935.9,286046999.9,N
1605731955.8,286047000.3,N
1605731975.6,286047002.7,N
1605731995.4,286046999.7,N
1605732015.3,286047002.4,N
1605732035.1,286047002.4,N
1605732055.8,286047000.4,N
1605732075.7,286046999.9,N
1605732095.5,286046998.1,N
1605732115.3,286046998.3,N
1605732135.2,286046998.7,N
1605732155.0,286046998.7,N
1605732155.9,286046998.7,N
1605732175.7,286046998.6,N
1605732195.6,286046998.1,N
1605732215.4,286047001.0,N
1605732235.2,286046998.1,N
1605732255.1,286046999.4,N
1605732256.0,286046999.4,N
1605732275.8,286046998.8,N
1605732295.6,286046999.4,N
1605732315.5,286046998.5,N
1605732335.3,286046998.5,N
1605732355.1,286046998.1,N
1605732375.9,286046999.0,N
1605732395.7,286046998.6,N
1605732415.5,286047000.7,N
1605732435.4,286046998.7,N
1605732455.2,286046999.5,N
1605732475.0,286046996.9,N
1605732475.9,286046996.9,N
1605732495.8,286046998.4,N
1605732515.6,286046999.4,N
1605732535.4,286046999.5,N
1605732555.3,286046997.2,N
1605732575.1,286046999.0,N
1605732576.0,286046999.0,N
1605732595.8,286046997.1,Y
1605732615.7,286046996.9,P
1605732635.5,286046998.9,N
1605732655.3,286046996.7,P
1605732675.2,286046997.2,N
1605732695.9,286046997.1,Y
1605732715.7,286046998.5,P
1605732735.6,286046998.3,P
1605732755.4,286046999.6,N
1605732775.2,286046999.6,N
1605732795.1,286046996.8,Y
1605732796.0,286046996.8,P
1605732815.8,286046998.4,N
1605732835.6,286046998.5,N
1605732855.5,286047000.4,N
1605732875.3,286047001.1,N
1605732895.1,286047000.3,N
1605732915.9,286047000.7,N
1605732935.7,286047000.7,N
1605732955.5,286047001.0,N
1605732975.4,286046999.8,N
1605732995.2,286047000.3,N
1605733015.0,286046998.5,N
1605733015.9,286046998.5,N
1605733035.8,286046998.1,N
1605733055.6,286046998.1,N
1605733075.4,286046998.3,N
1605733095.3,286047000.8,N
1605733115.1,286046998.6,N
1605733116.0,286046998.6,N
1605733135.8,286047001.2,N
1605733155.7,286047001.0,N
1605733175.5,286047000.0,N
1605733195.3,286047002.3,N
